Location: De Har
(53.3413°N, 6.6858°E)
Time: 19:30:48
(UTC+00:00)

DMSP B5D2-2 - Pass Details

Date: 22 April 2026
Orbit: 785 x 799 km, 98.4° (Epoch: 21 May)

Event Time Altitude Azimuth Distance (km) Brightness Sun altitude
Exits shadow 01:45:24 10° 154° (SSE) 2,350 6.2 -18.6°
Reaches altitude 10° 01:45:25 10° 154° (SSE) 2,342 6.2 -18.6°
Maximum altitude 01:50:34 73° 71° (ENE) 827 4.2 -18.1°
Drops below altitude 10° 01:55:46 10° 348° (NNW) 2,361 7.1 -17.7°
Sets 01:58:06 0° 346° (NNW) 3,295 7.9 -17.4°
